Retour au catalogue

COSMOS 2499 DEB

ActifPO
NORAD 59373·DEBRIS·🇷🇺 Russia

Lancé May 23, 2014 depuis Plesetsk Cosmodrome

Loading…

Prochains Passages (prochaines 24 heures)

TLE

PériméSource: Space-Track

Époque: Aug 31, 2026, 03:21 UTC

1 59373U 14028BT  26243.13964651  .00006243  00000-0  14216-1 0  9994
2 59373  82.5068 175.2392 0289026  33.7505 328.1647 13.11684805157435

Suivez COSMOS 2499 DEB en temps réel avec AllMySat

Download on the App Store